Forside
METAR-TAF:

METAR-TAF

Lufthavne :

Merrill Municipal Airport

Merrill, Wisconsin, USA

Breddekreds: 45-11N, længdekreds: 089-42W, højde: 401 m

Aktuelle vejr

Denne rapport blev lavet for 13 minutter siden, kl. 03:35 UTC
Vind stille
Temperatur -22°C
Fugtighed 84%
Tryk 1020 hPa
Sigt: 16.1 km
skyfri

METAR: KRRL 110335Z AUTO 00000KT 10SM CLR M22/M24 A3012 RMK AO2 T12221238 TSNO

Tid: 21:48 (03:48 UTC)


TAF: fraværende

Vejrobservationer og prognoser fra mere end 4000 lufthavne (METAR og TAF).

De gule og røde prikker repræsenterer de meteorologiske stationer.

Flyt musen over at se navnet på stationen.

Så klik over at se vejr observationer og prognoser.

At skifte det kort: Klik på de grønne knapper med et sort kors for at zoome ind; på den grønne knap med en bindestreg for at zoome ud; eller på de grønne pile for tilstødende kort.


METAR-TAF: